Temperature
0 1 0 -0 -1 -1 -1 -0 0 0 -1 -2 -4 -5 -6 -7 -7 -7 -8 -8 -8 -8 -8 -7 -7 -6 -6 -6 -6 -5 -5 -5 -4 -4 -4 -3 -3 -3 -3 -3 -3 -3 -3 -3
-1 -1 -1 -2 -1 -2 -2 -2 -2 -2 -2 -4 -5 -6 -7 -7 -8 -8 -8 -9 -9 -9 -8 -8 -8 -7 -7 -7 -6 -6 -6 -5 -5 -5 -4 -4 -4 -4 -4 -4 -3 -3 -3 -3
0 -2 -2 -1 -2 -3 -3 -3 -3 -3 -3 -5 -6 -6 -7 -8 -8 -9 -9 -9 -9 -9 -9 -9 -8 -8 -8 -7 -7 -7 -6 -6 -5 -5 -5 -5 -5 -5 -4 -4 -4 -4 -4 -4
-1 -1 -1 -1 -4 -4 -4 -5 -5 -5 -6 -6 -7 -8 -8 -9 -9 -9 -10 -10 -10 -10 -9 -9 -9 -8 -8 -8 -7 -7 -7 -7 -6 -6 -6 -6 -6 -5 -5 -5 -5 -5 -5 -5
-1 -1 -1 -2 -5 -5 -5 -5 -6 -6 -6 -7 -8 -8 -8 -9 -9 -10 -10 -10 -10 -10 -10 -9 -9 -9 -9 -8 -8 -8 -7 -7 -7 -7 -7 -6 -6 -6 -6 -6 -6 -6 -6 -5
-2 -1 -1 -2 -5 -7 -5 -4 -7 -7 -7 -8 -8 -6 -6 -9 -10 -10 -10 -10 -10 -10 -10 -10 -10 -9 -9 -9 -9 -8 -8 -8 -8 -8 -7 -7 -7 -7 -7 -7 -7 -7 -6 -6
-3 -2 -2 -5 -7 -6 -4 -4 -8 -8 -9 -9 -9 -8 -9 -10 -10 -11 -11 -11 -11 -10 -10 -10 -10 -10 -10 -10 -9 -9 -9 -9 -8 -8 -8 -8 -8 -7 -7 -7 -7 -7 -7 -7
-4 -3 -3 -8 -7 -6 -6 -8 -9 -9 -9 -10 -10 -10 -10 -11 -11 -11 -11 -11 -11 -11 -11 -11 -11 -11 -10 -10 -10 -10 -9 -9 -9 -9 -9 -8 -8 -8 -8 -8 -8 -8 -8 -7
-5 -4 -7 -9 -8 -9 -9 -9 -10 -10 -10 -10 -11 -11 -11 -11 -11 -12 -12 -12 -12 -12 -11 -11 -11 -11 -11 -11 -11 -10 -10 -10 -10 -9 -9 -9 -9 -9 -9 -9 -9 -9 -9 -8
-7 -7 -8 -9 -10 -9 -10 -10 -10 -11 -11 -11 -11 -11 -12 -12 -12 -12 -12 -12 -12 -12 -12 -12 -12 -12 -12 -11 -11 -11 -11 -11 -10 -10 -10 -10 -10 -10 -10 -10 -9 -9 -9 -9
-8 -8 -9 -10 -10 -10 -10 -10 -11 -11 -11 -11 -12 -12 -12 -12 -12 -12 -12 -13 -13 -13 -13 -12 -12 -12 -12 -12 -12 -12 -12 -11 -11 -11 -11 -11 -10 -10 -10 -10 -10 -10 -10 -10
-7 -8 -9 -9 -10 -10 -11 -11 -11 -11 -12 -12 -12 -12 -13 -13 -13 -13 -13 -13 -13 -13 -13 -13 -13 -13 -13 -13 -13 -12 -12 -12 -12 -12 -11 -11 -11 -11 -11 -11 -10 -10 -10 -10
-10 -10 -10 -10 -11 -11 -11 -11 -12 -12 -12 -12 -12 -13 -13 -13 -13 -13 -13 -13 -13 -14 -13 -13 -13 -13 -13 -13 -13 -13 -13 -13 -12 -12 -12 -12 -12 -11 -11 -11 -11 -11 -11 -10
-11 -11 -11 -11 -11 -12 -12 -12 -12 -12 -12 -13 -13 -13 -13 -13 -13 -14 -14 -14 -14 -14 -14 -14 -14 -14 -14 -14 -13 -13 -13 -13 -13 -13 -13 -12 -12 -12 -12 -12 -11 -11 -11 -11
-11 -12 -12 -12 -12 -12 -12 -12 -13 -13 -13 -13 -13 -14 -14 -14 -14 -14 -14 -14 -14 -14 -14 -14 -14 -14 -14 -14 -14 -14 -14 -13 -13 -13 -13 -13 -13 -13 -13 -12 -12 -12 -12 -11
-12 -12 -12 -12 -12 -13 -13 -13 -13 -13 -13 -14 -14 -14 -14 -14 -14 -15 -15 -15 -15 -15 -15 -15 -14 -14 -14 -14 -14 -14 -14 -14 -14 -14 -13 -13 -13 -13 -13 -13 -13 -13 -12 -12
-13 -13 -13 -13 -13 -13 -13 -14 -14 -14 -14 -14 -14 -14 -15 -15 -15 -15 -15 -15 -15 -15 -15 -15 -15 -15 -15 -15 -15 -14 -14 -14 -14 -14 -14 -14 -14 -14 -13 -13 -13 -13 -13 -13
-12 -13 -13 -13 -13 -14 -14 -14 -14 -14 -14 -14 -15 -15 -15 -15 -15 -15 -15 -15 -15 -15 -15 -15 -15 -15 -15 -15 -15 -15 -15 -15 -15 -15 -14 -14 -14 -14 -14 -14 -14 -14 -13 -13
-13 -13 -13 -13 -14 -14 -14 -14 -14 -14 -15 -15 -15 -15 -15 -15 -16 -16 -16 -16 -16 -16 -15 -15 -16 -16 -16 -15 -16 -15 -15 -15 -15 -15 -15 -15 -15 -15 -14 -14 -14 -14 -14 -14
-13 -13 -13 -14 -14 -14 -14 -14 -15 -15 -15 -15 -15 -15 -16 -16 -16 -16 -16 -16 -16 -16 -16 -16 -16 -16 -16 -16 -16 -16 -16 -16 -16 -16 -16 -15 -15 -15 -15 -15 -15 -14 -14 -14
-14 -14 -14 -14 -14 -15 -15 -15 -15 -15 -15 -16 -16 -16 -16 -16 -16 -16 -16 -16 -16 -17 -17 -16 -16 -16 -16 -16 -16 -16 -16 -16 -16 -16 -16 -16 -16 -16 -16 -15 -15 -15 -15 -15
-14 -14 -14 -15 -15 -15 -15 -15 -15 -16 -16 -16 -16 -16 -16 -16 -17 -17 -17 -17 -17 -17 -17 -17 -17 -17 -17 -17 -17 -17 -17 -17 -17 -17 -17 -16 -16 -16 -16 -16 -16 -15 -15 -15
-15 -15 -15 -15 -15 -15 -16 -16 -16 -16 -16 -16 -17 -17 -17 -17 -17 -17 -17 -17 -17 -17 -17 -17 -17 -17 -17 -17 -17 -17 -17 -17 -17 -17 -17 -17 -17 -17 -16 -16 -16 -16 -16 -16
-15 -15 -16 -16 -16 -16 -16 -16 -17 -17 -17 -17 -17 -17 -17 -17 -17 -18 -18 -18 -18 -18 -18 -18 -18 -18 -18 -18 -18 -18 -18 -17 -17 -17 -17 -17 -17 -17 -17 -17 -16 -16 -16 -16
-16 -16 -16 -16 -16 -16 -17 -17 -17 -17 -17 -17 -17 -18 -18 -18 -18 -18 -18 -18 -18 -18 -18 -18 -18 -18 -18 -18 -18 -18 -18 -18 -18 -18 -18 -17 -17 -17 -17 -17 -17 -17 -17 -16
-16 -16 -17 -17 -17 -17 -17 -17 -18 -18 -18 -18 -18 -18 -18 -18 -18 -18 -18 -18 -18 -18 -18 -18 -18 -18 -18 -18 -18 -18 -18 -18 -18 -18 -18 -18 -18 -17 -17 -17 -17 -17 -17 -17
-16 -17 -17 -17 -17 -17 -18 -18 -18 -18 -18 -18 -18 -18 -18 -18 -19 -19 -19 -19 -19 -19 -19 -19 -19 -19 -19 -19 -19 -19 -18 -18 -18 -18 -18 -18 -18 -18 -18 -18 -18 -17 -17 -17
Wind_Speed
8 7 6 6 7 6 7 7 8 8 8 7 5 5 5 4 5 5 6 7 8 8 8 8 8 8 8 7 7 6 5 5 5 5 4 4 3 3 3 3 4 4 4 5
5 5 4 6 8 8 8 8 8 8 7 4 4 3 3 4 4 5 7 8 9 9 8 8 8 8 8 8 7 6 5 5 5 5 4 4 4 3 3 3 3 3 4 4
4 2 3 6 6 6 4 4 5 7 4 3 4 5 4 4 4 5 7 8 9 9 8 8 8 8 8 7 7 6 6 5 5 4 4 4 4 3 3 3 3 3 4 4
3 2 6 1 3 2 3 3 3 3 3 3 5 5 4 1 4 6 7 8 9 9 9 8 8 8 8 7 7 6 6 6 5 5 5 4 4 4 4 3 3 3 4 4
3 4 6 2 1 2 3 3 3 3 3 4 5 3 2 1 5 6 7 8 8 8 8 8 8 8 7 7 7 7 6 6 6 5 5 4 4 4 4 4 4 4 4 4
3 4 5 1 1 0 2 3 1 2 3 3 3 3 2 4 6 7 7 7 8 8 8 8 8 7 7 7 7 7 8 7 6 5 5 5 5 4 4 4 4 4 4 4
6 6 5 1 0 3 4 2 1 3 3 3 3 4 5 6 6 6 7 7 7 7 7 7 7 7 7 7 8 8 8 7 6 5 5 5 4 4 4 4 4 4 4 4
4 5 4 3 4 3 2 2 1 3 3 4 5 5 5 5 6 7 7 7 7 7 7 7 7 7 7 8 9 8 8 7 6 6 5 4 4 4 4 4 4 4 4 4
4 3 1 3 2 1 1 2 2 3 4 4 4 5 5 6 6 7 7 7 7 7 7 7 7 7 8 9 9 8 8 7 6 6 5 5 4 4 4 3 3 3 3 4
3 4 3 3 2 2 2 3 3 3 3 4 5 5 6 6 6 6 7 7 7 7 8 8 8 8 8 9 8 8 8 7 6 6 5 5 4 4 4 4 4 4 4 4
4 4 3 3 3 3 2 2 3 3 3 3 4 5 6 6 6 6 6 6 6 7 8 9 9 9 9 8 8 8 7 7 6 5 5 5 5 4 5 5 5 5 5 5
4 3 3 2 1 2 2 3 3 3 4 4 4 5 6 6 6 6 7 6 7 7 8 8 8 9 8 8 7 7 7 6 5 5 5 4 5 5 6 7 8 9 9 8
2 1 2 3 2 1 2 3 3 4 4 5 5 5 6 6 6 6 7 7 7 8 8 8 8 9 8 8 7 7 7 7 6 5 5 5 5 5 5 6 6 7 8 8
1 0 1 1 2 2 2 3 3 3 4 4 5 5 5 6 6 7 7 7 7 8 8 8 8 9 8 8 7 7 7 7 6 5 5 5 5 5 5 5 6 5 6 8
1 2 2 3 2 2 2 2 3 4 4 4 4 5 5 6 7 8 8 7 7 7 8 8 8 9 8 8 8 7 7 6 5 5 5 5 5 5 5 5 6 6 6 6
2 2 2 3 4 4 3 3 4 5 5 5 5 6 6 7 7 8 7 7 7 8 8 8 8 9 8 8 8 7 6 8 7 6 5 5 5 5 5 5 5 6 6 6
1 2 2 4 5 5 5 5 6 6 6 6 7 7 7 7 7 8 8 7 7 8 8 8 9 9 8 8 7 6 6 7 8 7 5 5 5 5 5 5 5 6 6 6
4 4 4 5 5 6 6 6 6 6 6 6 6 6 6 6 7 8 8 8 8 8 8 8 9 9 8 8 7 6 6 6 5 5 5 5 6 5 5 6 6 6 6 6
3 4 5 5 5 5 5 6 6 6 6 5 6 6 7 7 8 8 8 7 8 8 8 8 11 9 8 9 8 6 5 6 6 6 6 7 7 6 5 6 6 6 6 5
3 4 4 4 4 4 5 5 5 5 5 5 6 6 7 7 7 7 7 7 6 7 9 10 9 8 8 8 8 5 6 6 6 6 6 6 6 6 6 6 6 6 6 5
4 4 4 4 4 4 5 5 5 5 6 5 6 7 7 8 7 6 6 7 7 8 9 10 8 7 7 7 8 6 5 6 6 6 6 6 6 6 6 6 6 6 5 5
4 4 5 5 5 5 5 5 5 5 6 5 6 6 7 7 7 6 6 6 8 11 8 6 7 9 9 9 5 5 6 6 6 6 6 6 6 6 6 6 6 6 6 6
4 5 5 5 5 5 5 5 5 5 6 6 6 6 7 7 6 6 7 6 7 11 8 7 9 12 11 6 5 6 6 6 6 6 6 6 6 6 6 7 6 6 6 6
4 5 5 5 4 4 5 5 5 5 6 6 6 6 6 6 6 5 6 10 11 11 8 9 12 12 10 5 5 6 6 6 6 6 6 6 6 6 6 6 6 6 6 7
4 4 4 4 4 4 5 6 6 6 6 5 6 6 5 5 6 7 7 8 10 11 8 9 12 12 7 6 6 6 6 7 7 7 6 6 6 6 6 6 6 6 6 6
4 4 4 4 4 4 4 4 4 5 5 6 6 5 5 5 7 7 6 7 9 10 8 7 7 8 6 6 7 7 7 7 8 7 7 7 7 7 7 7 8 7 7 7
3 3 3 4 4 4 4 4 5 6 6 6 7 6 6 6 6 6 7 7 7 7 6 6 6 6 6 6 7 7 7 7 7 7 7 7 7 7 7 8 7 7 7 7
Wind_Direction
266 274 263 259 260 246 236 248 254 266 270 290 310 310 318 331 341 347 349 350 348 345 342 342 340 340 339 338 339 338 333 330 326 322 319 316 308 295 284 265 253 243 234 228
261 258 252 266 268 253 251 254 254 267 274 318 323 326 326 335 340 342 341 341 340 339 337 336 336 334 332 334 333 332 326 324 323 321 321 319 313 303 297 283 268 256 242 237
256 270 277 264 255 228 228 237 236 252 279 327 317 318 314 315 331 332 333 332 332 331 329 327 328 327 325 327 329 328 324 324 323 318 317 314 312 311 307 299 285 269 257 245
261 252 244 236 69 165 205 240 235 260 295 298 305 304 294 303 338 333 331 328 327 327 326 326 326 326 326 328 329 328 325 324 319 317 313 313 313 309 307 300 290 281 272 259
227 249 263 234 185 192 219 256 227 250 288 316 329 298 248 344 340 325 321 319 319 321 321 323 327 329 328 328 329 327 323 319 315 309 306 308 306 303 302 298 296 291 282 272
217 241 253 238 100 343 193 247 194 262 285 315 333 283 298 337 325 320 322 322 322 324 325 326 329 330 325 325 326 324 320 313 308 303 297 295 295 298 298 297 293 289 284 276
227 239 259 14 142 174 213 298 337 266 266 265 264 292 312 313 313 316 320 322 324 324 322 323 326 326 321 321 320 317 315 309 304 302 297 291 292 295 296 295 293 290 286 280
207 223 246 126 145 196 289 352 290 276 273 271 285 306 310 311 314 318 321 323 324 321 320 322 326 323 319 319 318 317 314 307 304 304 303 298 293 292 290 289 287 287 287 287
210 228 55 155 195 306 332 282 286 282 283 279 286 297 308 311 312 313 315 318 320 317 316 320 324 322 315 317 319 317 314 308 305 305 303 298 292 288 287 282 279 284 286 288
245 253 250 247 255 276 283 281 293 292 285 277 283 293 300 304 306 308 310 312 315 314 314 317 323 322 316 316 317 314 311 308 305 303 301 299 294 287 281 278 275 277 280 285
247 270 284 252 240 267 290 302 306 306 295 283 286 292 296 298 301 303 305 309 310 309 308 312 318 319 319 319 318 312 309 306 303 299 297 297 291 284 282 277 272 273 274 276
250 244 238 269 283 286 272 283 287 294 297 295 286 289 294 294 297 299 301 305 306 306 306 309 313 315 317 318 315 311 307 306 303 299 296 294 295 295 284 278 286 279 273 273
268 312 279 284 292 288 285 290 289 279 281 289 292 291 291 294 296 299 299 301 302 303 303 306 309 311 315 316 312 307 301 300 300 297 294 294 293 295 302 301 292 290 287 284
269 303 270 271 284 305 302 304 299 292 290 290 292 295 295 296 299 298 297 299 300 301 301 303 305 307 312 312 309 304 302 298 297 295 293 290 288 290 292 296 303 303 300 297
261 267 272 298 302 303 307 305 300 296 299 301 301 297 296 296 296 298 300 303 302 300 301 304 305 307 313 311 306 302 301 300 299 299 295 291 289 288 288 289 291 295 299 299
302 303 277 276 282 291 294 289 286 289 294 297 298 297 296 295 296 299 302 303 302 301 303 304 303 306 311 309 305 300 296 298 302 299 297 295 294 292 290 288 289 290 291 294
264 284 282 284 283 284 279 275 276 283 287 288 292 297 299 300 300 300 303 303 297 294 297 299 301 306 308 305 301 298 297 299 301 297 294 293 292 289 287 286 286 286 286 287
251 265 265 268 275 279 282 282 281 283 284 291 295 296 295 296 296 299 304 306 304 300 300 301 303 306 305 305 302 296 296 297 297 294 293 292 290 289 287 285 285 285 287 289
271 272 275 273 274 275 279 283 285 286 289 292 290 289 288 288 290 295 301 302 302 304 309 310 310 310 306 306 304 295 295 296 295 295 294 293 294 290 287 286 285 286 288 290
293 287 284 282 282 276 277 285 290 291 290 288 285 288 291 293 293 294 296 291 288 295 302 307 308 306 304 303 304 295 292 292 293 294 293 290 289 288 286 285 285 285 286 287
298 295 289 286 286 283 281 283 285 287 290 286 281 283 287 293 294 292 293 295 300 304 304 305 308 306 305 305 301 294 293 292 291 291 290 289 289 288 286 285 284 283 283 284
298 294 291 289 287 291 292 288 283 283 288 288 286 286 290 295 298 291 280 282 298 308 311 304 304 306 311 308 301 298 295 293 291 290 288 288 286 286 286 286 284 284 283 283
294 291 291 289 286 289 294 293 287 284 284 286 288 289 289 290 292 291 294 297 301 305 307 300 306 311 314 312 306 302 299 298 296 294 291 289 287 285 284 284 283 281 281 281
296 296 295 294 289 290 296 301 298 292 288 286 284 285 289 292 290 282 285 298 306 307 304 303 310 314 315 310 305 301 298 297 296 295 293 292 292 289 286 285 284 283 282 282
294 296 297 298 296 294 297 301 300 299 298 296 295 292 289 286 286 293 294 295 301 304 302 303 308 312 310 302 299 296 295 293 295 294 290 291 290 289 287 285 284 284 284 283
300 298 294 291 289 292 296 298 298 300 302 301 301 300 298 294 291 293 294 296 296 300 301 299 301 303 300 297 295 294 293 295 296 294 291 289 289 289 286 286 286 283 282 280
301 301 301 302 302 298 295 293 294 297 298 297 299 301 302 301 300 301 300 298 299 297 297 296 296 295 294 293 293 292 292 291 291 289 288 286 286 286 286 284 283 283 282 280
Height
1484 1484 1485 1485 1486 1487 1486 1481 1477 1475 1478 1481 1485 1486 1486 1485 1484 1482 1480 1478 1476 1473 1471 1469 1466 1464 1462 1460 1457 1455 1454 1453 1452 1451 1450 1450 1450 1449 1449 1449 1450 1450 1450 1451
1486 1485 1485 1486 1484 1484 1485 1484 1483 1482 1482 1485 1486 1486 1485 1484 1483 1481 1480 1477 1475 1472 1470 1467 1465 1462 1460 1457 1455 1453 1451 1450 1449 1448 1448 1447 1446 1446 1446 1445 1445 1445 1446 1446
1479 1485 1485 1479 1481 1483 1484 1484 1484 1481 1482 1485 1484 1484 1484 1483 1482 1480 1478 1476 1474 1471 1469 1466 1463 1461 1458 1455 1453 1451 1449 1448 1446 1445 1444 1444 1443 1442 1442 1441 1441 1441 1441 1442
1482 1484 1479 1478 1485 1484 1484 1485 1486 1485 1485 1485 1484 1483 1482 1482 1481 1479 1477 1475 1472 1469 1467 1464 1461 1459 1456 1453 1451 1449 1447 1445 1444 1443 1442 1441 1440 1439 1438 1438 1438 1437 1437 1438
1481 1476 1472 1480 1484 1486 1485 1483 1485 1485 1485 1484 1483 1481 1480 1480 1479 1478 1476 1473 1471 1468 1465 1462 1459 1456 1453 1451 1448 1446 1444 1442 1441 1440 1439 1438 1437 1436 1435 1435 1434 1434 1433 1434
1481 1475 1469 1474 1484 1485 1486 1480 1483 1483 1483 1483 1482 1478 1478 1478 1477 1475 1473 1471 1468 1465 1462 1459 1457 1454 1451 1448 1446 1443 1442 1440 1438 1437 1436 1435 1434 1433 1432 1432 1431 1431 1430 1430
1480 1476 1472 1482 1485 1485 1481 1476 1482 1482 1482 1482 1481 1480 1479 1476 1475 1473 1471 1468 1466 1463 1460 1457 1455 1452 1449 1446 1443 1441 1439 1437 1435 1434 1433 1432 1431 1430 1429 1429 1428 1427 1427 1426
1481 1476 1475 1484 1484 1483 1480 1481 1480 1480 1480 1480 1479 1477 1476 1474 1472 1470 1468 1465 1463 1460 1457 1455 1452 1449 1446 1443 1441 1438 1436 1434 1432 1431 1430 1429 1427 1426 1426 1425 1424 1424 1423 1422
1480 1479 1481 1481 1481 1481 1480 1480 1479 1479 1478 1477 1476 1475 1473 1471 1470 1467 1465 1463 1460 1458 1455 1452 1450 1447 1443 1441 1438 1435 1433 1431 1429 1428 1427 1425 1424 1423 1422 1422 1421 1420 1419 1419
1483 1479 1480 1480 1479 1479 1479 1478 1477 1477 1476 1475 1474 1472 1471 1469 1467 1465 1462 1460 1457 1455 1452 1449 1446 1443 1441 1438 1435 1433 1430 1428 1426 1425 1423 1422 1421 1420 1419 1418 1417 1416 1416 1415
1481 1479 1479 1477 1477 1477 1477 1476 1475 1474 1473 1472 1471 1470 1468 1466 1464 1462 1460 1457 1455 1452 1449 1446 1443 1441 1438 1435 1432 1430 1427 1425 1424 1422 1420 1419 1418 1417 1416 1415 1414 1413 1412 1412
1475 1476 1477 1476 1475 1475 1474 1474 1473 1472 1470 1470 1469 1467 1465 1463 1461 1459 1457 1454 1452 1449 1446 1443 1440 1437 1435 1432 1430 1427 1424 1422 1421 1419 1417 1416 1414 1413 1412 1412 1410 1409 1409 1408
1475 1474 1474 1474 1473 1473 1472 1471 1470 1469 1468 1466 1465 1464 1462 1460 1458 1456 1453 1451 1448 1446 1443 1440 1437 1434 1432 1429 1427 1424 1422 1420 1418 1416 1414 1413 1411 1410 1408 1408 1407 1406 1405 1404
1473 1473 1472 1471 1471 1470 1470 1469 1468 1466 1465 1463 1462 1460 1459 1456 1454 1452 1450 1448 1445 1442 1440 1437 1434 1432 1429 1427 1424 1422 1419 1417 1415 1413 1412 1410 1409 1407 1406 1404 1403 1401 1401 1400
1471 1471 1471 1469 1469 1468 1467 1466 1464 1463 1462 1460 1459 1457 1455 1453 1451 1449 1446 1444 1441 1439 1436 1434 1431 1429 1426 1424 1421 1418 1416 1414 1412 1410 1409 1407 1406 1404 1403 1401 1400 1398 1397 1397
1469 1469 1468 1467 1466 1465 1464 1462 1461 1460 1458 1457 1455 1454 1452 1450 1447 1445 1443 1440 1438 1435 1433 1430 1428 1425 1423 1420 1418 1415 1413 1411 1410 1408 1406 1404 1403 1401 1400 1398 1397 1395 1394 1393
1467 1466 1465 1464 1463 1462 1461 1460 1458 1457 1455 1454 1452 1451 1448 1446 1444 1442 1439 1437 1434 1432 1430 1427 1424 1422 1420 1418 1415 1413 1411 1408 1407 1405 1403 1401 1399 1398 1396 1395 1393 1392 1391 1390
1465 1464 1463 1462 1460 1459 1458 1457 1455 1454 1452 1451 1449 1447 1445 1443 1440 1438 1436 1433 1431 1428 1426 1424 1421 1419 1416 1414 1412 1410 1408 1405 1403 1401 1399 1398 1396 1395 1393 1392 1390 1389 1387 1387
1462 1461 1460 1459 1458 1456 1455 1454 1452 1451 1449 1447 1445 1443 1441 1439 1437 1435 1432 1430 1427 1424 1422 1420 1418 1415 1413 1411 1409 1406 1404 1402 1400 1398 1396 1394 1393 1391 1389 1388 1387 1385 1384 1383
1460 1458 1457 1456 1455 1453 1452 1450 1449 1447 1445 1444 1442 1439 1437 1436 1433 1431 1428 1426 1424 1421 1419 1416 1414 1412 1409 1407 1405 1403 1401 1399 1396 1394 1392 1390 1389 1387 1386 1384 1383 1382 1380 1379
1456 1455 1454 1452 1451 1450 1449 1447 1445 1443 1442 1440 1438 1436 1434 1432 1430 1427 1424 1422 1420 1418 1415 1413 1410 1408 1406 1404 1402 1399 1397 1395 1393 1391 1389 1387 1385 1383 1382 1381 1379 1378 1376 1375
1453 1452 1451 1449 1448 1446 1445 1443 1442 1440 1438 1436 1434 1432 1430 1428 1426 1423 1421 1419 1416 1414 1412 1409 1407 1405 1402 1400 1398 1396 1393 1391 1389 1387 1385 1383 1381 1380 1378 1376 1375 1374 1372 1371
1450 1449 1448 1446 1444 1443 1441 1440 1438 1436 1434 1432 1430 1428 1426 1424 1422 1419 1417 1415 1413 1410 1408 1405 1403 1401 1399 1396 1394 1392 1389 1387 1385 1383 1381 1379 1377 1376 1374 1372 1371 1369 1368 1367
1448 1446 1444 1443 1441 1439 1437 1436 1434 1432 1430 1428 1426 1425 1422 1420 1418 1416 1413 1411 1409 1406 1404 1401 1399 1397 1395 1392 1390 1388 1385 1383 1381 1379 1377 1375 1373 1372 1370 1368 1366 1365 1363 1362
1445 1443 1441 1440 1438 1436 1434 1432 1430 1428 1426 1424 1423 1421 1419 1416 1414 1412 1409 1407 1404 1402 1400 1397 1395 1393 1391 1388 1386 1384 1381 1379 1377 1375 1373 1371 1369 1367 1366 1364 1362 1360 1359 1357
1441 1440 1438 1436 1435 1433 1431 1429 1427 1425 1423 1420 1419 1417 1415 1412 1410 1408 1405 1403 1400 1398 1396 1393 1391 1389 1386 1384 1382 1380 1377 1375 1373 1371 1369 1367 1365 1363 1361 1360 1358 1356 1354 1353
1439 1437 1435 1433 1432 1430 1428 1426 1424 1421 1419 1417 1415 1413 1411 1408 1406 1404 1401 1399 1396 1394 1391 1389 1387 1384 1382 1380 1378 1376 1373 1371 1369 1367 1365 1363 1361 1359 1357 1355 1353 1352 1350 1348